Regional Weather Roundup
Issued by NWS

Home | Current Version | Previous Version | Graphics & Text | Print | Product List | Glossary On
Versions: 1 2 3 4 5 6 7 8 9 10 11 12 13 14 15 16 17 18 19 20 21 22 23 24 25 26 27 28 29 30 31 32 33 34 35 36 37 38 39 40 41 42 43 44 45 46 47 48 49 50
556
ASUS45 KCYS 180110
RWRWY

WYOMING REGIONAL WEATHER ROUNDUP
NATIONAL WEATHER SERVICE CHEYENNE WY
600 PM MST WED JAN 17 2018

NOTE:  "FAIR" INDICATES FEW OR NO CLOUDS BELOW 12,000 FEET
WITH NO SIGNIFICANT WEATHER AND/OR OBSTRUCTIONS TO VISIBILITY.

WYZ001-180200-
YELLOWSTONE NATIONAL PARK

CITY           SKY/WX    TMP DP  RH WIND       PRES   REMARKS
LK YELLOWSTONE   N/A     26  22  84 CALM      30.34S
W YELLOWSTONE  NOT AVBL

$$
WYZ002>013-054>058-071-098>099-180200-
NORTHERN WYOMING

CITY           SKY/WX    TMP DP  RH WIND       PRES   REMARKS
JACKSON        FAIR      17  10  74 CALM      30.37S
CODY           FAIR      26  18  71 CALM      30.18F
GREYBULL       FAIR      17  10  74 NW5       30.23S WCI  10
WORLAND        FAIR      18  12  77 NE5       30.21F WCI  11
SHERIDAN       FAIR      26  17  68 CALM      30.12S
BUFFALO        FAIR      32  15  49 CALM      30.12F
GILLETTE       FAIR      34  22  61 S12       30.13F WCI  25
HULETT         FAIR      32  21  64 SW9       30.14F WCI  24
NEWCASTLE      FAIR      28  19  69 N8        30.20F WCI  20

$$
WYZ014>020-022>026-101>103-180200-
CENTRAL WYOMING

CITY           SKY/WX    TMP DP  RH WIND       PRES   REMARKS
BIG PINEY      FAIR      23  17  78 N8        30.35R WCI  14
PINEDALE       FAIR      19  14  79 CALM      30.35F
DUBOIS         FAIR      32  16  51 N17       30.25S WCI  21
LANDER         FAIR      23  16  74 SE7       30.24F WCI  15
RIVERTON       FAIR      20  12  71 SW3       30.26F
CASPER         FAIR      34  18  52 SW13      30.21F WCI  25
DOUGLAS        FAIR      31  21  66 W3        30.23S

$$
WYZ021-027>030-104>119-180200-
SOUTHERN WYOMING

CITY           SKY/WX    TMP DP  RH WIND       PRES   REMARKS
EVANSTON       FAIR      33  26  75 W9        30.35S WCI  25
FORT BRIDGER   FAIR      36  26  67 W9        30.38R WCI  29
ROCK SPRINGS   FAIR      33  23  66 SW7       30.33R WCI  27
DIXON            N/A     30  17  59 CALM      30.38R
RAWLINS        FAIR      32  18  56 W10       30.30F WCI  24
SARATOGA       FAIR      30  16  55 SW6       30.31F WCI  24
LARAMIE        FAIR      26  13  57 E7        30.27R WCI  18
CHEYENNE       FAIR      36  17  46 NW3       30.25S
TORRINGTON     FAIR      34  25  69 E6        30.22F WCI  29

$$




USA.gov is the U.S. government's official web portal to all federal, state and local government web resources and services.